MST,Max TemperatureF,Mean TemperatureF,Min TemperatureF,Max Dew PointF,MeanDew PointF,Min DewpointF,Max Humidity, Mean Humidity, Min Humidity, Max Sea Level PressureIn, Mean Sea Level PressureIn, Min Sea Level PressureIn, Max VisibilityMiles, Mean VisibilityMiles, Min VisibilityMiles, Max Wind SpeedMPH, Mean Wind SpeedMPH, Max Gust SpeedMPH,PrecipitationIn, CloudCover, Events, WindDirDegrees
2013-2-1,36,26,16,28,23,15,96,83,70,30.45,30.38,30.33,10,10,10,12,3,13,0.00,0,,331
2013-2-2,37,27,17,28,24,16,92,78,64,30.56,30.50,30.43,10,10,10,13,3,15,0.00,0,,306
2013-2-3,35,29,23,28,25,22,100,88,75,30.42,30.28,30.15,10,10,10,9,2,10,0.00,2,,323
2013-2-4,35,26,16,28,23,16,100,85,70,30.30,30.24,30.17,10,9,2,12,4,13,0.00,0,,311
2013-2-5,37,28,19,29,25,18,100,85,70,30.27,30.15,30.02,10,10,9,13,3,14,0.00,0,,304
2013-2-6,43,34,24,31,27,23,92,77,62,30.17,30.04,29.95,10,10,9,13,3,14,0.00,1,,304
2013-2-7,43,34,24,29,26,22,92,75,57,30.27,30.15,29.98,10,10,10,10,3,10,0.00,0,,347
2013-2-8,52,42,31,34,29,23,89,64,38,29.98,29.75,29.63,10,10,9,30,8,40,0.01,6,Rain,217
2013-2-9,41,36,30,30,24,18,92,66,40,29.78,29.68,29.62,10,10,9,16,6,21,T,3,Snow,286
2013-2-10,37,33,28,26,22,19,78,63,48,29.92,29.85,29.78,10,10,10,13,3,16,T,5,,155
2013-2-11,34,28,22,27,23,18,92,74,56,30.20,29.99,29.88,10,5,1,12,5,13,0.14,6,Snow,346
2013-2-12,32,25,17,20,17,12,84,69,54,30.36,30.30,30.17,10,10,10,10,3,12,0.00,1,,311
2013-2-13,37,29,20,25,20,15,88,70,52,30.37,30.30,30.24,10,10,10,9,3,10,0.00,0,,298
2013-2-14,46,35,23,28,24,21,96,68,40,30.33,30.27,30.17,10,10,10,9,2,10,0.00,0,,296
2013-2-15,46,35,23,28,23,19,88,65,41,30.47,30.42,30.32,10,10,10,10,3,10,0.00,0,,310
2013-2-16,48,36,24,28,22,19,84,61,37,30.51,30.35,30.15,10,10,10,10,4,13,0.00,0,,161
2013-2-17,48,39,29,28,22,10,85,62,38,30.12,29.90,29.73,10,10,10,22,8,26,0.00,1,,288
2013-2-18,43,32,20,17,12,5,74,49,24,30.17,30.11,30.00,10,10,10,20,4,23,0.00,0,,283
2013-2-19,43,34,25,20,15,10,63,45,27,30.08,29.87,29.61,10,10,10,13,5,14,0.00,0,,135
2013-2-20,46,37,27,27,20,17,64,48,31,29.63,29.57,29.52,10,10,10,10,3,14,0.00,2,,282
2013-2-21,46,36,26,25,20,15,75,53,31,29.90,29.77,29.62,10,10,10,14,4,16,0.00,5,,298
2013-2-22,41,33,25,18,12,9,58,44,30,30.12,30.02,29.90,10,10,10,17,7,21,0.00,4,,283
2013-2-23,40,31,21,28,22,12,92,66,40,30.09,29.86,29.75,10,7,0,23,7,28,0.04,5,Fog-Snow,322
2013-2-24,37,28,18,21,17,10,84,64,44,30.19,30.01,29.85,10,10,4,7,4,8,T,5,Snow,332
2013-2-25,42,30,18,18,15,9,84,56,27,30.25,30.13,29.96,10,10,10,10,3,12,0.00,0,,239
2013-2-26,42,32,22,23,13,5,72,47,21,30.28,30.06,29.92,10,10,2,25,8,31,T,4,Snow,318
2013-2-27,41,29,17,14,9,-2,74,46,17,30.42,30.37,30.28,10,10,10,7,2,9,0.00,0,,272
2013-2-28,47,32,16,15,11,5,80,50,19,30.51,30.44,30.34,10,10,10,10,2,16,0.00,0,,255